Starlink 3116

operational
NORAD ID: 49146 Int'l Des: 2021-082 Owner: SPXS Country: US Constellation: starlink
LEOCIRCULAR

About Starlink 3116

Description loading...

Live Position

Loading 3D Globe...

Upcoming Passes

Altitude History

Altitude vs Time

uPlot chart will show altitude changes over time

Two-Line Element Set

1 49146U 21082S 25303.21983985 -.00000399 00000-0 -26277-4 0 9996
2 49146 69.9999 243.7919 0003101 272.2609 87.8195 14.97521587228071
Epoch: Oct 30, 2025 • Age: 12 hours

Current Status

Altitude 582.5 km
Velocity 7.57 km/s
Sub-Earth Point -25.26°S, 131.8°E
Launch Date Sep 14, 2021
Age 4.1 years
Type internet

Technical Details

Classification Payload
Mass 297.00 kg
Dry Mass 275.00 kg
Total Mass 297.00 kg
Length 0.20 m
Diameter 2.80 m
Span 9.00 m
Shape Box + pan
Manufacturer SPXS
Bus Type Starlink
Phase Status In Orbit
Owner/State SPXS/US

Large Constellations

Loading constellations...